Вернуться в каталог

STARLINK-36034

АктивенСвязьVLEO
NORAD 66609·PAYLOAD·🇺🇸 United States

Запущен Nov 22, 2025 с Cape Canaveral Space Force Station

Loading…

Ближайшие Пролёты (ближайшие 24 часа)

TLE

СвежийSource: CelesTrak SupGP

Эпоха: Sep 15, 2026, 03:47 UTC

1 66609C 25270X   26258.15812500 -.00027802  00000+0 -10068-2 0  2583
2 66609  43.0044  66.5389 0001790 268.8588 254.5302 15.27598208    12

Отслеживайте STARLINK-36034 в реальном времени с AllMySat

Download on the App Store